Weather History for Burlington, WA

Change the Weather History Date:

Monday, May 20, 2013

  Actual Average Record
Temperature  
Mean Temperature 52 °F -  
Max Temperature 62 °F 64 °F 82 °F (1961)
Min Temperature 42 °F 45 °F 34 °F (1975)
Degree Days  
Heating Degree Days 13    
Growing Degree Days 2 (Base 50)    
Moisture  
Dew Point 50 °F    
Average Humidity 91    
Maximum Humidity 100    
Minimum Humidity 72    
Precipitation  
Precipitation 0.00 in - - ()
Sea Level Pressure  
Sea Level Pressure 30.18 in    
Wind  
Wind Speed 2 mph (SW)    
Max Wind Speed 8 mph    
Max Gust Speed 16 mph    
Visibility 9 miles    
Events      
Averages and records for this station are not official NWS values.
T = Trace of Precipitation, MM = Missing Value Source: NWS Daily Summary

Daily Weather History Graph

Daily Weather History Graph

Search for Another Location

Airport:

Trip Planner

Search our weather history database for the weather conditions in past years. The results will help you decide how hot, cold, wet, or windy it might be!

Date:

Astronomy

May. 20, 2013 Rise Set
Actual Time 5:22 AM PDT 8:50 PM PDT
Civil Twilight 4:44 AM PDT 9:29 PM PDT
Nautical Twilight 3:53 AM PDT 10:20 PM PDT
Astronomical Twilight 2:45 AM PDT 11:29 PM PDT
Moon 3:42 PM PDT (5/20) 2:45 AM PDT (5/20)
Length of Visible Light 16h 44m
Length of Day
15h 27m
Waxing Gibbous, 76% of the Moon is Illuminated
May 20
Waxing Gibbous
May 24
Full
May 31
Last Quarter
Jun 8
New
Jun 16
First Quarter

Hourly Weather History & Observations

Time (PDT) Temp. Dew Point Humidity Pressure Visibility Wind Dir Wind Speed Gust Speed Precip Events Conditions
12:15 AM 46.4 °F 46.4 °F 100% 30.38 in 10.0 mi Calm Calm - 0.00 in   Clear
12:35 AM 46.4 °F 46.4 °F 100% 30.37 in 10.0 mi Calm Calm - 0.00 in   Clear
12:55 AM 46.4 °F 46.4 °F 100% 30.37 in 9.0 mi Calm Calm - 0.00 in   Clear
1:15 AM 46.4 °F 46.4 °F 100% 30.37 in 9.0 mi Calm Calm - 0.00 in   Clear
1:35 AM 46.4 °F 46.4 °F 100% 30.37 in 8.0 mi Calm Calm - 0.00 in   Clear
1:55 AM 44.6 °F 44.6 °F 100% 30.37 in 2.5 mi Calm Calm - 0.00 in   Clear
2:15 AM 44.6 °F 44.6 °F 100% 30.37 in 5.0 mi Calm Calm - 0.00 in   Clear
2:35 AM 44.6 °F 44.6 °F 100% 30.37 in 8.0 mi Calm Calm - 0.00 in   Clear
2:55 AM 44.6 °F 44.6 °F 100% 30.36 in 10.0 mi Calm Calm - 0.00 in   Clear
3:15 AM 44.6 °F 44.6 °F 100% 30.36 in 10.0 mi Calm Calm - 0.00 in   Clear
3:35 AM 44.6 °F 44.6 °F 100% 30.36 in 10.0 mi Calm Calm - 0.00 in   Clear
3:55 AM 44.6 °F 44.6 °F 100% 30.36 in 10.0 mi Calm Calm - 0.00 in   Clear
4:15 AM 44.6 °F 44.6 °F 100% 30.35 in 10.0 mi Calm Calm - 0.00 in   Clear
4:55 AM 44.6 °F 44.6 °F 100% 30.34 in 6.0 mi Calm Calm - 0.00 in   Clear
5:15 AM 44.6 °F 44.6 °F 100% 30.33 in 2.0 mi Calm Calm - 0.00 in   Clear
5:35 AM 42.8 °F 42.8 °F 100% 30.33 in 1.0 mi Calm Calm - 0.00 in   Clear
5:55 AM 44.6 °F 44.6 °F 100% 30.33 in 6.0 mi Calm Calm - 0.00 in   Clear
6:15 AM 44.6 °F 44.6 °F 100% 30.33 in 6.0 mi Calm Calm - 0.00 in   Clear
6:35 AM 44.6 °F 44.6 °F 100% 30.32 in 8.0 mi Calm Calm - 0.00 in   Clear
6:55 AM 46.4 °F 46.4 °F 100% 30.31 in 8.0 mi Calm Calm - 0.00 in   Clear
7:15 AM 48.2 °F 48.2 °F 100% 30.31 in 10.0 mi Calm Calm - 0.00 in   Clear
7:35 AM 50.0 °F 50.0 °F 100% 30.30 in 10.0 mi South 3.5 mph - 0.00 in   Partly Cloudy
7:55 AM 51.8 °F 51.8 °F 100% 30.30 in 10.0 mi SSW 4.6 mph - 0.00 in   Clear
8:15 AM 51.8 °F 51.8 °F 100% 30.29 in 10.0 mi SSW 4.6 mph - 0.00 in   Clear
8:35 AM 53.6 °F 53.6 °F 100% 30.29 in 10.0 mi SSW 4.6 mph - 0.00 in   Clear
8:55 AM 53.6 °F 51.8 °F 94% 30.29 in 10.0 mi Calm Calm - 0.00 in   Clear
9:15 AM 53.6 °F 51.8 °F 94% 30.28 in 10.0 mi Calm Calm - 0.00 in   Clear
9:35 AM 53.6 °F 51.8 °F 94% 30.28 in 10.0 mi South 4.6 mph - 0.00 in   Clear
9:55 AM 55.4 °F 51.8 °F 88% 30.27 in 10.0 mi South 3.5 mph - 0.00 in   Clear
10:15 AM 55.4 °F 51.8 °F 88% 30.26 in 10.0 mi SW 4.6 mph - 0.00 in   Clear
10:35 AM 55.4 °F 51.8 °F 88% 30.25 in 10.0 mi Calm Calm - 0.00 in   Partly Cloudy
10:55 AM 57.2 °F 53.6 °F 88% 30.24 in 10.0 mi Calm Calm - 0.00 in   Partly Cloudy
11:15 AM 57.2 °F 53.6 °F 88% 30.22 in 10.0 mi South 3.5 mph - 0.00 in   Scattered Clouds
11:35 AM 57.2 °F 53.6 °F 88% 30.21 in 10.0 mi Calm Calm - 0.00 in   Partly Cloudy
11:55 AM 57.2 °F 53.6 °F 88% 30.21 in 10.0 mi NNW 3.5 mph - 0.00 in   Clear
12:15 PM 60.8 °F 53.6 °F 77% 30.20 in 10.0 mi SSW 4.6 mph - 0.00 in   Partly Cloudy
12:35 PM 60.8 °F 55.4 °F 82% 30.19 in 10.0 mi Calm Calm - 0.00 in   Partly Cloudy
12:55 PM 60.8 °F 53.6 °F 77% 30.18 in 10.0 mi SSE 3.5 mph - 0.00 in   Scattered Clouds
1:15 PM 60.8 °F 55.4 °F 82% 30.17 in 10.0 mi SW 5.8 mph - 0.00 in   Mostly Cloudy
1:35 PM 62.6 °F 55.4 °F 77% 30.16 in 10.0 mi West 4.6 mph - 0.00 in   Scattered Clouds
1:55 PM 62.6 °F 53.6 °F 72% 30.15 in 10.0 mi West 4.6 mph - 0.00 in   Partly Cloudy
2:15 PM 62.6 °F 55.4 °F 77% 30.14 in 10.0 mi WSW 4.6 mph - 0.00 in   Partly Cloudy
2:35 PM 60.8 °F 55.4 °F 82% 30.13 in 10.0 mi WSW 6.9 mph - 0.00 in   Mostly Cloudy
2:55 PM 62.6 °F 53.6 °F 72% 30.13 in 10.0 mi WNW 5.8 mph - 0.00 in   Scattered Clouds
3:15 PM 62.6 °F 55.4 °F 77% 30.12 in 10.0 mi SSW 6.9 mph - 0.00 in   Mostly Cloudy
3:35 PM 62.6 °F 55.4 °F 77% 30.11 in 10.0 mi WNW 5.8 mph - 0.00 in   Partly Cloudy
3:55 PM 60.8 °F 53.6 °F 77% 30.10 in 10.0 mi West 5.8 mph - 0.00 in   Clear
4:15 PM 62.6 °F 53.6 °F 72% 30.09 in 10.0 mi WNW 8.1 mph - 0.00 in   Clear
4:35 PM 60.8 °F 53.6 °F 77% 30.08 in 10.0 mi West 5.8 mph - 0.00 in   Clear
4:55 PM 60.8 °F 53.6 °F 77% 30.07 in 10.0 mi West 5.8 mph - 0.00 in   Clear
5:15 PM 60.8 °F 53.6 °F 77% 30.06 in 10.0 mi West 5.8 mph - 0.00 in   Clear
5:35 PM 60.8 °F 53.6 °F 77% 30.06 in 10.0 mi SW 4.6 mph - 0.00 in   Clear
5:55 PM 57.2 °F 51.8 °F 82% 30.05 in 10.0 mi SSW 8.1 mph - 0.00 in   Clear
6:15 PM 57.2 °F 51.8 °F 82% 30.03 in 10.0 mi SSW 6.9 mph - 0.00 in   Clear
6:35 PM 57.2 °F 51.8 °F 82% 30.02 in 10.0 mi SSW 6.9 mph - 0.00 in   Clear
6:55 PM 57.2 °F 51.8 °F 82% 30.01 in 10.0 mi SSW 6.9 mph - 0.00 in   Clear
7:15 PM 57.2 °F 51.8 °F 82% 30.01 in 10.0 mi SW 3.5 mph - 0.00 in   Partly Cloudy
7:35 PM 55.4 °F 51.8 °F 88% 30.01 in 10.0 mi SW 6.9 mph - 0.00 in   Clear
7:55 PM 53.6 °F 51.8 °F 94% 30.00 in 10.0 mi SW 6.9 mph - 0.00 in   Partly Cloudy
8:15 PM 53.6 °F 51.8 °F 94% 30.00 in 10.0 mi SW 5.8 mph - 0.00 in   Mostly Cloudy
8:35 PM 51.8 °F 51.8 °F 100% 29.99 in 10.0 mi SW 5.8 mph - 0.00 in   Mostly Cloudy
8:55 PM 53.6 °F 51.8 °F 94% 29.98 in 10.0 mi SW 4.6 mph - 0.00 in   Mostly Cloudy
9:15 PM 51.8 °F 51.8 °F 100% 29.98 in 10.0 mi South 3.5 mph - 0.00 in   Partly Cloudy
9:35 PM 51.8 °F 50.0 °F 94% 29.97 in 10.0 mi SE 4.6 mph - 0.00 in   Partly Cloudy
9:55 PM 51.8 °F 50.0 °F 94% 29.96 in 10.0 mi SSW 8.1 mph - 0.00 in   Mostly Cloudy
10:15 PM 51.8 °F 48.2 °F 88% 29.96 in 10.0 mi SW 8.1 mph 16.1 mph 0.00 in   Partly Cloudy
10:35 PM 51.8 °F 48.2 °F 88% 29.96 in 10.0 mi SSW 3.5 mph - 0.00 in   Scattered Clouds
10:55 PM 50.0 °F 50.0 °F 100% 29.94 in 10.0 mi Calm Calm - 0.00 in   Mostly Cloudy
11:15 PM 50.0 °F 50.0 °F 100% 29.93 in 10.0 mi Calm Calm - 0.00 in   Mostly Cloudy
11:35 PM 50.0 °F 50.0 °F 100% 29.94 in 10.0 mi Calm Calm - 0.00 in   Overcast
11:55 PM 50.0 °F 50.0 °F 100% 29.93 in 10.0 mi SW 3.5 mph - 0.00 in   Overcast